Orbital elements:
    P/2004 T1 (LINEAR-NEAT)
Epoch 2004 Nov. 11.0 TT = JDT 2453320.5
T 2004 Nov. 7.77003 TT                                  MPC
q   1.7095506            (2000.0)            P               Q
n   0.15234330     Peri.  336.52349     +0.87731375     -0.45595502
a   3.4720593      Node    51.46061     +0.46505802     +0.73065671
e   0.5076263      Incl.   11.03767     +0.11849733     +0.50817890
P   6.47
Residuals in seconds of arc
040716 704  0.4+  0.1-    041007 379  0.4+  1.1-    041016 349  0.4+  0.1-
040716 704  0.4+  0.7-    041007 379  0.4+  0.1+    041016 349  0.4+  0.0
040716 704  1.9-  1.6+    041007 349  0.1+  0.1-    041016 349  0.3+  0.1+
040716 704  0.4+  1.2-    041007 349  0.1-  0.2-    041016 A33  0.3+  0.5+
040921 704  0.4+  1.0+    041007 349  0.2-  0.0     041016 A33  0.3+  0.3+
040921 704  0.3-  0.4+    041007 349  0.0   0.1-    041016 939  0.0   0.5+
040921 704  0.4-  0.5+    041008 415  0.1-  1.0-    041016 939  0.2-  0.9+
041005 704  1.1-  1.3+    041008 415  0.6+  0.2-    041016 939  0.0   1.0+
041005 704  1.0-  0.2+    041008 415  0.4+  0.9-    041017 A02  0.1+  0.0
041005 246  0.2-  0.3-    041008 415  0.8+  1.2-    041017 A02  0.1+  0.1-
041005 246  0.3-  0.2-    041008 589  0.2-  0.2-    041017 A02  0.2+  0.0
041005 246  0.5-  0.2-    041008 176  0.2+  0.3-    041017 834  0.2+  0.8+
041005 246  0.4-  0.1-    041008 176  0.0   0.3-    041017 834  0.3-  0.1-
041005 J95  0.2+  0.3+    041008 176  0.1+  0.3-    041017 834  0.4-  0.3-
041005 246  0.3-  0.3-    041008 176  0.2+  0.3-    041017 D83  0.1+  1.2-
041005 J95  0.1+  0.3+    041008 176  0.2+  0.3-    041017 D83  0.6+  0.6-
041005 J95  0.3+  0.4+    041008 589  0.2-  0.0     041017 D83  0.1+  0.5-
041005 104  0.2-  0.4-    041009 I05  0.3+  0.3+    041017 D83  0.2-  0.3-
041005 104  0.0   0.2-    041009 I05  0.2-  0.5+    041017 349  0.3-  0.2+
041005 104  0.4-  0.1-    041009 I77  0.7+  0.4-    041017 349  0.3-  0.0
041005 104  0.1+  0.3-    041009 I77  0.5+  0.4-    041017 349  0.1-  0.0
041005 557  0.1+  0.0     041009 I77  0.1+  0.1-    041017 349  0.3-  0.1+
041005 557  0.2-  0.2+    041009 I77  0.0   0.2-    041017 379  0.2+  0.3-
041005 113  0.3-  0.5+    041009 608  1.6-  1.4+    041017 379  0.7+  0.7+
041005 557  0.0   0.1-    041009 415  0.0   0.4-    041017 130  0.1-  0.2+
041005 113  0.2-  0.5+    041009 415  0.3-  0.3-    041017 130  0.4+  0.0
041005 113  0.0   0.2+    041009 415  0.5-  0.1+    041017 130  0.3+  0.2+
041005 113  0.2-  0.6+    041009 415  0.5-  0.3-    041017 130  0.1+  0.1-
041005 113  0.0   0.4+    041009 213  0.8-  0.6+    041017 130  0.8+  0.2+
041006 J95  0.1-  0.1-    041010 704  0.7+  0.6-    041018 118  0.1-  0.6-
041006 I77  0.1+  0.6-    041010 704  0.3-  0.4-    041018 118  0.5+  0.3-
041006 I77  0.3+  0.7-    041010 704  0.7-  0.7-    041018 118  0.1-  0.9-
041006 850  1.7+  1.6-    041010 415  0.3+  0.8+    041018 118  0.1+  0.6-
041006 850  0.1-  0.1+    041010 415  0.2+  0.2-    041020 834  0.5-  0.4+
041006 850  0.0   0.1+    041010 415  0.3-  0.4+    041020 834  0.1-  0.0
041006 850  0.0   0.1-    041010 213  0.3-  0.2+    041020 834  0.5-  0.3+
041006 854  0.2-  0.3+    041010 213  0.4-  0.1+    041020 H41  0.5+  0.2-
041006 854  0.6-  0.3+    041010 213  0.0   0.5+    041020 H41  0.6+  0.0
041006 854  0.1+  0.2+    041010 J78  0.3-  0.3-    041020 H41  0.1-  0.1+
041006 854  0.1-  0.1+    041010 J78  0.3-  0.4-    041020 213  0.6+  0.2+
041006 704  0.2-  0.6-    041010 J78  0.6+  0.1-    041020 213  0.4+  0.3-
041006 704  1.1-  0.6-    041011 367  0.3-  0.0     041020 213  0.3-  0.3+
041006 704  0.2-  0.8-    041011 367  0.3-  0.1+    041021 379  1.3+  0.1-
041006 704  0.8-  0.6+    041011 367  0.1-  0.1+    041021 379  0.5+  0.1+
041006 704  0.4-  0.3+    041011 900  0.4+  0.4+    041021 372  1.6-  1.1+
041006 G90  0.1+  0.0     041011 900  0.1+  0.2+    041021 372  0.1+  0.0
041006 704  0.5-  0.1+    041011 372  0.1-  1.3+    041022 608  0.8+  1.9+
041006 704  1.3-  1.2-    041011 J78  0.0   0.7+    041022 A06  0.2+  0.6-
041006 G90  0.1+  0.0     041011 J78  0.3-  0.8+    041022 A06  0.1+  1.1-
041006 G90  0.2+  0.1-    041011 A32  0.6-  0.4+    041022 213  1.3+  0.0
041006 704  0.3-  0.1-    041011 J78  0.7-  1.1+    041022 213  1.1+  0.0
041006 704  1.0+  0.5+    041011 A32  0.2-  0.7+    041023 939  0.3+  0.2-
041006 E14  0.4+  0.5-    041011 A32  0.0   0.3+    041023 939  0.2+  0.2+
041006 E14  0.1-  0.8-    041011 A32  0.7-  0.3+    041023 939  0.3+  0.5+
041006 E14  0.3+  0.5-    041011 A10  0.4-  0.3+    041023 213  0.5+  0.0
041006 349  0.3-  0.5-    041011 A10  0.2-  0.8+    041023 213  0.2+  0.1-
041006 349  0.2-  0.1-    041012 360  0.2-  0.8-    041023 213  0.5+  0.4-
041006 349  0.2+  0.1-    041012 360  0.2-  0.9-    041024 I77  0.3-  0.8-
041006 104  0.1-  0.0     041012 A33  0.2+  0.2-    041024 I77  0.4-  1.0-
041006 104  0.1-  0.0     041012 A33  0.2+  0.0     041024 I77  0.7-  0.9-
041006 104  0.0   0.0     041013 352  0.2+  0.4+    041024 I77  0.2+  0.5-
041006 938  0.1-  0.4+    041013 352  0.0   0.2-    041028 349  0.2-  0.3-
041006 938  0.1+  0.0     041013 352  0.1+  0.1+    041028 349  0.1+  0.1+
041006 938  0.2+  0.1-    041013 372  1.5-  0.4-    041028 349  0.3-  0.2+
041006 A11  0.7-  1.6-    041013 372  0.8-  0.3+    041029 213  0.6-  0.3+
041006 938  0.0   0.2+    041013 372  0.7-  0.8+    041029 213  0.4+  0.3+
041006 938  0.0   0.5-    041014 834  0.5-  0.3+    041029 213  0.6-  0.6+
041006 938  0.0   0.1-    041014 834  0.4+  0.5-    041031 939  0.3-  0.8+
041006 938  0.2+  0.1-    041014 D70  0.5-  0.6+    041031 939  0.5-  0.7+
041006 938  0.2+  0.3-    041014 D70  0.0   0.4+    041031 939  0.4-  0.6+
041006 938  0.4+  0.2-    041014 D70  0.3+  1.0+    041102 445  1.5+  1.0-
041006 A11  1.2-  0.2+    041015 I77  0.0   0.0     041102 445  0.3+  1.1-
041007 834  0.0   0.2+    041015 I77  0.3+  0.1+    041102 445  0.6-  1.0-
041007 834  0.1-  0.6+    041015 I77  0.2+  0.5-    041103 355  0.1+  0.1+
041007 834  0.6-  0.3+    041015 349  0.3+  0.2+    041103 355  0.4+  0.1-
041007 850  0.4+  0.3-    041015 349  0.1+  0.3+    041103 355  0.1+  0.1+
041007 850  0.2+  0.6-    041015 349  0.0   0.1+    041104 235  0.9-  1.4+
041007 673  0.0   0.4-    041015 349  0.3+  0.3+    041104 104  0.9-  0.4-
041007 704  0.4-  0.0     041015 J78  0.9+  0.3+    041104 104  0.2-  0.3-
041007 673  1.3-  0.5-    041015 J78  0.8+  0.9+    041104 104  0.8-  0.3-
041007 704  0.4-  0.2-    041015 J78  0.6+  1.0+    041105 I77  0.9+  0.8-
041007 704  0.4-  0.2+    041015 A10  0.2+  0.6-    041105 I77  0.7-  1.3-
041007 704  0.9+  0.5+    041015 A10  1.5+  0.2+    041105 I77  0.4-  0.6-
041007 673  0.6+  0.0     041016 360  0.2-  0.3-    041105 704  0.9+  0.4-
041007 673  0.7+  0.0     041016 360  0.2-  0.5-    041105 704  1.6+  1.6+
041007 850  0.0   0.6-    041016 379  0.4+  0.4-    041105 704  0.8-  1.3+
041007 850  0.6+  0.5-    041016 379  0.7-  1.2+    041105 704  0.6+  1.0+
041007 415  1.7+  0.4-    041016 372  1.5+  0.1-    041105 704 (0.7-  6.1+)
041007 415  0.3-  0.2-    041016 372  0.1+  0.1+    041105 213  0.6-  0.3-
041007 415  0.5+  1.1-    041016 355  0.3+  0.6+    041105 213  0.8-  0.5+
041007 415  1.0-  0.7+    041016 355  0.3-  0.6+    041105 213  1.3-  0.5-
041007 379  1.4+  0.7-    041016 355  0.3-  0.5+    041106 360  1.2-  0.9-
041007 379  1.8+  1.5-    041016 355  0.2+  0.3+    041106 360  1.2-  1.0-

Brian G. Marsden             (C) Copyright 2004 MPC           M.P.E.C. 2004-V41

Read MPEC 2004-V40 Read MPEC 2004-V42


Our Web policy. Index to the CBAT/MPC/ICQ pages.

